Regional Weather Roundup
Issued by NWS Lake Charles, LA

Home | Current Version | Previous Version | Text Only | Print | Product List | Glossary On
Versions: 1 2 3 4 5 6 7 8 9 10 11 12 13 14 15 16 17 18 19 20 21 22 23 24 25 26 27 28 29 30 31 32 33 34 35 36 37 38 39 40 41 42 43 44 45 46 47 48 49 50
000
ASUS44 KLCH 281410
RWRLCH
RWRLCH
REGIONAL WEATHER ROUNDUP
NATIONAL WEATHER SERVICE LAKE CHARLES LA
800 AM CST SUN DEC 28 2014

Note: "fair" indicates few or no clouds below 12,000 feet with no
significant weather and/or obstructions to visibility.


ACROSS SOUTHEAST TEXAS

CITY           SKY/WX    TMP DP  RH WIND       PRES   REMARKS
BEAUMONT       CLOUDY    48  46  93 N12       30.16S
BEAUMONT CITY  DRIZZLE   44  43  97 N9G16     30.17F
ORANGE         CLOUDY    47  46  97 N7        30.18F
JASPER         LGT RAIN  41  40  96 N5        30.22R
$$

ACROSS CENTRAL LOUISIANA

CITY           SKY/WX    TMP DP  RH WIND       PRES   REMARKS
LEESVILLE      CLOUDY    45  45 100 N8        30.19R FOG
FULLERTON      CLOUDY    49  46  90 VRB3      30.16R FOG
ALEXANDRIA INT CLOUDY    49  47  93 NW9       30.17R
ESLER FIELD    CLOUDY    49  47  93 N8        30.17R
DERIDDER       CLOUDY    46  44  95 N8        30.20R FOG
OAKDALE        CLOUDY    51  48  92 N6        30.17R
OPELOUSAS      CLOUDY   N/A N/A N/A N7        30.14R
$$

ACROSS SOUTHWEST AND SOUTH CENTRAL LOUISIANA

CITY           SKY/WX    TMP DP  RH WIND       PRES   REMARKS
SULPHUR        CLOUDY    51  50  97 NW12      30.19R
LAKE CHARLES   CLOUDY    52  49  89 N9        30.17R
CHENNAULT INT  CLOUDY    52  48  87 N8        30.17R
CAMERON PHI    NOT AVBL
DEQUINCY       CLOUDY    47  47 100 N6        30.19R
JENNINGS       CLOUDY    51  49  94 N9        30.16R
LAFAYETTE      CLOUDY    53  50  89 N10       30.13R
NEW IBERIA     CLOUDY    55  52  89 N10       30.13R
ABBEVILLE      CLOUDY    53  52  96 N8        30.13R
PATTERSON      CLOUDY    59  57  94 N9        30.12R
SALT POINT       N/A     70  59  68 N7        30.10R
$$

SELECTED SITES ACROSS THE REGION

CITY           SKY/WX    TMP DP  RH WIND       PRES   REMARKS
HOUSTON BUSH   LGT RAIN  41  39  93 N13       30.20S
HOUSTON HOBBY  LGT RAIN  43  41  93 N9        30.20R
GALVESTON      CLOUDY    48  46  93 N16       30.18R
COLLEGE STAT   LGT RAIN  37  33  85 NW9       30.24R
CONROE         LGT RAIN  38  36  92 N8        30.21S
HUNTSVILLE     LGT RAIN  36  35  96 VRB5      30.21F
LUFKIN         RAIN      40  36  86 NW9       30.22R FOG
SHREVEPORT     LGT RAIN  41  40  96 N7        30.21S
MONROE         LGT RAIN  44  43  96 N7        30.23R
NATCHEZ MS     CLOUDY    48  45  87 N8        30.14S
BATON ROUGE    CLOUDY    53  50  89 N6        30.13R
N.O. INTL ARPT FOG       67  66  97 CALM      30.09R VSB 1/8
SLIDELL        FOG       68  67  96 S3        30.08S VSB 1
$$

MARINE REPORTS

STATION/POSITION TIME  TEMP    WIND        PRES    VSBY  WAVE
                       AIR SEA DIR/SP/G                  HT/PER
                 (UTC) (F)     (DEG/KT/KT) (MB)    (MI)  (FT/S)
BUOY 30 S HIGH I 1400   50 61   20/ 17/ 19 1019.9R         3/ 4
SEA RIM ST PARK  1400   48     360/ 11/ 14 1021.6F
PORT ARTHUR      1400      59   20/ 10/ 13 1021.1F
SABINE PASS N    1400   50 59   20/ 12/ 17 1020.8F
TEXAS POINT      NOT AVBL
CALCASIEU PASS   1400   53 58   30/ 14/ 17   N/A
LK CHARLES BEACH 1400   51 59              1021.8R
MARSH ISLAND     NOT AVBL
FRESH WATER LOCK 1400   54 60  350/ 11/ 14 1019.7R
AMERADA PASS     1400   60 53  330/  3/  6 1019.1R
$$


USA.gov is the U.S. government's official web portal to all federal, state and local government web resources and services.